5NBSK DNCA-DNMM

Flight info

Callsign 5NBSK
Flight time 3h 7m
Altitude 6000
Route ULNUM V717 APVOT L433 EDGOT
Aircraft A139/L-SDG/S

Departure

Time 2026-05-09 05:36
Airport Margaret Ekpo International Airport (DNCA)

Arrival

Time 2026-05-09 08:44
Airport Murtala Muhammed International Airport (DNMM)
Time Latitude Longitude Altitude Speed Heading
2026-05-09 05:29 4.96966 8.34640 218 ft 0 kts 251°
2026-05-09 05:34 4.96975 8.34625 218 ft 5 kts 351°
2026-05-09 05:35 4.97009 8.34639 216 ft 5 kts 25°
2026-05-09 05:35 4.97047 8.34638 215 ft 6 kts 329°
2026-05-09 05:35 4.97079 8.34593 217 ft 9 kts 296°
2026-05-09 05:35 4.97107 8.34538 217 ft 7 kts 298°
2026-05-09 05:36 4.97124 8.34501 226 ft 7 kts 261°
2026-05-09 05:36 4.97014 8.34440 254 ft 37 kts 211°
2026-05-09 05:36 4.96640 8.34241 474 ft 77 kts 203°
2026-05-09 05:36 4.96149 8.33982 857 ft 80 kts 203°
2026-05-09 05:37 4.95695 8.33713 1225 ft 78 kts 218°
2026-05-09 05:37 4.95458 8.33239 1514 ft 77 kts 251°
2026-05-09 05:37 4.95546 8.32706 1748 ft 80 kts 285°
2026-05-09 05:37 4.95800 8.32222 1989 ft 78 kts 294°
2026-05-09 05:38 4.96072 8.31725 2223 ft 86 kts 299°
2026-05-09 05:38 4.96393 8.31194 2447 ft 91 kts 298°
2026-05-09 05:38 4.96748 8.30612 2565 ft 104 kts 304°
2026-05-09 05:38 4.97154 8.29975 2762 ft 112 kts 302°
2026-05-09 05:39 4.97609 8.29261 2781 ft 131 kts 305°
2026-05-09 05:39 4.98131 8.28466 2894 ft 140 kts 305°
2026-05-09 05:39 4.98671 8.27647 3059 ft 139 kts 304°
2026-05-09 05:39 4.99201 8.26837 3186 ft 139 kts 304°
2026-05-09 05:40 4.99742 8.26009 3314 ft 140 kts 307°
2026-05-09 05:40 5.00457 8.25331 3454 ft 143 kts 322°
2026-05-09 05:40 5.01090 8.24799 3591 ft 143 kts 323°
2026-05-09 05:40 5.01355 8.24580 3644 ft 143 kts 323°
2026-05-09 05:41 5.01818 8.24198 3727 ft 145 kts 323°
2026-05-09 05:41 5.02594 8.23558 3884 ft 144 kts 323°
2026-05-09 05:41 5.03379 8.22910 3995 ft 146 kts 323°
2026-05-09 05:41 5.04174 8.22250 4155 ft 145 kts 324°
2026-05-09 05:42 5.04951 8.21608 4297 ft 146 kts 324°
2026-05-09 05:42 5.05745 8.20955 4432 ft 146 kts 324°
2026-05-09 05:42 5.06531 8.20305 4544 ft 146 kts 324°
2026-05-09 05:42 5.07316 8.19659 4659 ft 147 kts 325°
2026-05-09 05:43 5.08116 8.18999 4787 ft 147 kts 325°
2026-05-09 05:43 5.08904 8.18349 4900 ft 147 kts 325°
2026-05-09 05:43 5.09702 8.17691 5019 ft 148 kts 326°
2026-05-09 05:43 5.10509 8.17028 5154 ft 147 kts 326°
2026-05-09 05:44 5.11304 8.16370 5256 ft 148 kts 326°
2026-05-09 05:44 5.12107 8.15709 5377 ft 148 kts 326°
2026-05-09 05:44 5.12911 8.15048 5504 ft 148 kts 326°
2026-05-09 05:44 5.13714 8.14384 5616 ft 149 kts 326°
2026-05-09 05:45 5.14515 8.13724 5736 ft 149 kts 326°
2026-05-09 05:45 5.15327 8.13057 5858 ft 149 kts 326°
2026-05-09 05:45 5.16136 8.12390 5959 ft 149 kts 326°
2026-05-09 05:45 5.16942 8.11734 6000 ft 148 kts 324°
2026-05-09 05:46 5.17738 8.11074 5989 ft 148 kts 324°
2026-05-09 05:46 5.18546 8.10411 5963 ft 149 kts 323°
2026-05-09 05:46 5.19354 8.09742 5945 ft 149 kts 323°
2026-05-09 05:47 5.20965 8.08414 5941 ft 149 kts 322°
2026-05-09 05:47 5.21769 8.07748 5932 ft 150 kts 323°
2026-05-09 05:47 5.22585 8.07078 5943 ft 149 kts 323°
2026-05-09 05:47 5.23389 8.06413 5940 ft 149 kts 323°
2026-05-09 05:48 5.24197 8.05747 5940 ft 149 kts 323°
2026-05-09 05:48 5.25005 8.05081 5939 ft 149 kts 323°
2026-05-09 05:48 5.25816 8.04411 5937 ft 149 kts 323°
2026-05-09 05:48 5.26363 8.03961 5938 ft 149 kts 323°
2026-05-09 05:49 5.26850 8.03558 5935 ft 149 kts 323°
2026-05-09 05:49 5.27494 8.03029 5936 ft 148 kts 322°
2026-05-09 05:49 5.28304 8.02359 5927 ft 149 kts 322°
2026-05-09 05:49 5.29109 8.01694 5930 ft 149 kts 322°
2026-05-09 05:50 5.29912 8.01032 5934 ft 149 kts 323°
2026-05-09 05:50 5.30722 8.00364 5934 ft 149 kts 323°
2026-05-09 05:50 5.31524 7.99703 5937 ft 149 kts 322°
2026-05-09 05:50 5.32325 7.99041 5934 ft 149 kts 323°
2026-05-09 05:51 5.33132 7.98376 5940 ft 149 kts 322°
2026-05-09 05:51 5.33940 7.97710 5941 ft 148 kts 322°
2026-05-09 05:51 5.34739 7.97058 5936 ft 148 kts 323°
2026-05-09 05:51 5.35543 7.96409 5932 ft 148 kts 323°
2026-05-09 05:52 5.36357 7.95753 5932 ft 148 kts 323°
2026-05-09 05:52 5.37161 7.95103 5935 ft 148 kts 323°
2026-05-09 05:52 5.37974 7.94448 5937 ft 148 kts 323°
2026-05-09 05:52 5.38788 7.93789 5934 ft 149 kts 323°
2026-05-09 05:53 5.39601 7.93135 5942 ft 149 kts 323°
2026-05-09 05:53 5.40414 7.92480 5946 ft 148 kts 323°
2026-05-09 05:53 5.41224 7.91826 5938 ft 149 kts 323°
2026-05-09 05:53 5.42039 7.91168 5940 ft 149 kts 323°
2026-05-09 05:54 5.42844 7.90520 5943 ft 148 kts 323°
2026-05-09 05:54 5.43659 7.89862 5942 ft 148 kts 323°
2026-05-09 05:54 5.44468 7.89210 5936 ft 148 kts 324°
2026-05-09 05:54 5.45271 7.88562 5932 ft 149 kts 324°
2026-05-09 05:55 5.46088 7.87904 5933 ft 149 kts 323°
2026-05-09 05:55 5.46896 7.87254 5938 ft 148 kts 323°
2026-05-09 05:55 5.47708 7.86598 5935 ft 149 kts 323°
2026-05-09 05:55 5.48527 7.85938 5937 ft 149 kts 323°
2026-05-09 05:56 5.49331 7.85288 5932 ft 149 kts 323°
2026-05-09 05:56 5.50141 7.84635 5937 ft 149 kts 323°
2026-05-09 05:56 5.50951 7.83981 5937 ft 149 kts 323°
2026-05-09 05:56 5.51767 7.83321 5933 ft 149 kts 323°
2026-05-09 05:57 5.52573 7.82671 5938 ft 149 kts 323°
2026-05-09 05:57 5.53389 7.82014 5947 ft 149 kts 323°
2026-05-09 05:57 5.54208 7.81353 5952 ft 149 kts 323°
2026-05-09 05:57 5.55016 7.80701 5955 ft 150 kts 324°
2026-05-09 05:58 5.55836 7.80040 5964 ft 149 kts 324°
2026-05-09 05:58 5.56641 7.79392 5971 ft 148 kts 323°
2026-05-09 05:58 5.57456 7.78735 5966 ft 148 kts 323°
2026-05-09 05:58 5.58268 7.78078 5956 ft 149 kts 323°
2026-05-09 05:59 5.59075 7.77426 5956 ft 149 kts 323°
2026-05-09 05:59 5.59887 7.76772 5960 ft 149 kts 323°
2026-05-09 05:59 5.60705 7.76110 5959 ft 149 kts 323°
2026-05-09 05:59 5.61512 7.75460 5963 ft 149 kts 323°
2026-05-09 06:00 5.62327 7.74802 5962 ft 149 kts 323°
2026-05-09 06:00 5.63142 7.74143 5959 ft 150 kts 324°
2026-05-09 06:00 5.63954 7.73488 5962 ft 150 kts 324°
2026-05-09 06:00 5.64771 7.72828 5967 ft 150 kts 324°
2026-05-09 06:01 5.65591 7.72168 5972 ft 149 kts 323°
2026-05-09 06:01 5.66401 7.71513 5968 ft 149 kts 323°
2026-05-09 06:01 5.67217 7.70854 5967 ft 149 kts 324°
2026-05-09 06:01 5.68025 7.70202 5962 ft 149 kts 324°
2026-05-09 06:02 5.68838 7.69546 5964 ft 149 kts 324°
2026-05-09 06:02 5.69616 7.68920 5966 ft 149 kts 323°
2026-05-09 06:02 5.70419 7.68271 5964 ft 149 kts 323°
2026-05-09 06:02 5.71239 7.67608 5955 ft 150 kts 323°
2026-05-09 06:03 5.72056 7.66951 5966 ft 149 kts 323°
2026-05-09 06:03 5.72871 7.66291 5964 ft 150 kts 323°
2026-05-09 06:03 5.73683 7.65636 5966 ft 150 kts 323°
2026-05-09 06:03 5.74500 7.64977 5968 ft 151 kts 323°
2026-05-09 06:04 5.75318 7.64316 5970 ft 151 kts 323°
2026-05-09 06:04 5.76139 7.63652 5972 ft 150 kts 323°
2026-05-09 06:04 5.76954 7.62994 5976 ft 150 kts 323°
2026-05-09 06:04 5.77776 7.62329 5964 ft 150 kts 323°
2026-05-09 06:05 5.78591 7.61672 5967 ft 150 kts 323°
2026-05-09 06:05 5.79410 7.61010 5969 ft 150 kts 323°
2026-05-09 06:05 5.80232 7.60345 5962 ft 150 kts 323°
2026-05-09 06:05 5.81047 7.59687 5960 ft 151 kts 323°
2026-05-09 06:06 5.81870 7.59022 5964 ft 151 kts 323°
2026-05-09 06:06 5.82693 7.58357 5967 ft 150 kts 323°
2026-05-09 06:06 5.83512 7.57695 5969 ft 150 kts 323°
2026-05-09 06:06 5.84329 7.57035 5972 ft 150 kts 323°
2026-05-09 06:07 5.85146 7.56373 5964 ft 150 kts 323°
2026-05-09 06:07 5.85963 7.55714 5970 ft 149 kts 323°
2026-05-09 06:07 5.86773 7.55058 5964 ft 150 kts 324°
2026-05-09 06:07 5.87598 7.54392 5961 ft 150 kts 323°
2026-05-09 06:08 5.88417 7.53732 5961 ft 149 kts 324°
2026-05-09 06:08 5.89234 7.53071 5956 ft 150 kts 324°
2026-05-09 06:08 5.90045 7.52415 5959 ft 150 kts 324°
2026-05-09 06:08 5.90865 7.51752 5961 ft 150 kts 324°
2026-05-09 06:09 5.91695 7.51083 5968 ft 150 kts 324°
2026-05-09 06:09 5.92513 7.50422 5969 ft 150 kts 324°
2026-05-09 06:09 5.93326 7.49764 5969 ft 150 kts 324°
2026-05-09 06:09 5.94146 7.49104 5972 ft 149 kts 323°
2026-05-09 06:10 5.94955 7.48448 5967 ft 150 kts 324°
2026-05-09 06:10 5.95770 7.47790 5967 ft 150 kts 324°
2026-05-09 06:10 5.96586 7.47131 5970 ft 150 kts 324°
2026-05-09 06:10 5.97410 7.46463 5966 ft 150 kts 324°
2026-05-09 06:11 5.98218 7.45809 5965 ft 150 kts 324°
2026-05-09 06:11 5.99035 7.45149 5959 ft 151 kts 324°
2026-05-09 06:11 5.99858 7.44483 5964 ft 150 kts 324°
2026-05-09 06:11 6.00685 7.43815 5971 ft 150 kts 324°
2026-05-09 06:12 6.01505 7.43152 5971 ft 150 kts 324°
2026-05-09 06:12 6.02322 7.42490 5969 ft 151 kts 324°
2026-05-09 06:12 6.03145 7.41825 5970 ft 151 kts 324°
2026-05-09 06:12 6.03966 7.41162 5976 ft 150 kts 324°
2026-05-09 06:13 6.04522 7.40269 5968 ft 153 kts 284°
2026-05-09 06:13 6.04732 7.39215 5966 ft 155 kts 282°
2026-05-09 06:13 6.04934 7.38150 5978 ft 154 kts 282°
2026-05-09 06:13 6.05131 7.37085 5972 ft 154 kts 281°
2026-05-09 06:14 6.05325 7.36024 5972 ft 154 kts 281°
2026-05-09 06:14 6.05519 7.34952 5966 ft 155 kts 281°
2026-05-09 06:14 6.05709 7.33890 5959 ft 155 kts 281°
2026-05-09 06:14 6.05901 7.32817 5969 ft 155 kts 281°
2026-05-09 06:15 6.06092 7.31744 5971 ft 155 kts 281°
2026-05-09 06:15 6.06281 7.30677 5972 ft 155 kts 281°
2026-05-09 06:15 6.06471 7.29608 5977 ft 155 kts 281°
2026-05-09 06:15 6.06660 7.28538 5970 ft 156 kts 281°
2026-05-09 06:16 6.06849 7.27464 5973 ft 156 kts 281°
2026-05-09 06:16 6.07040 7.26394 5986 ft 154 kts 281°
2026-05-09 06:16 6.07226 7.25331 5972 ft 155 kts 281°
2026-05-09 06:16 6.07414 7.24264 5983 ft 154 kts 281°
2026-05-09 06:17 6.07603 7.23193 5972 ft 155 kts 281°
2026-05-09 06:17 6.07794 7.22118 5978 ft 155 kts 281°
2026-05-09 06:17 6.07981 7.21057 5980 ft 155 kts 281°
2026-05-09 06:17 6.08169 7.19989 5984 ft 154 kts 281°
2026-05-09 06:18 6.08358 7.18914 5974 ft 155 kts 281°
2026-05-09 06:18 6.08547 7.17842 5973 ft 155 kts 281°
2026-05-09 06:18 6.08735 7.16773 5976 ft 155 kts 281°
2026-05-09 06:18 6.08923 7.15706 5974 ft 155 kts 281°
2026-05-09 06:19 6.09115 7.14619 5977 ft 155 kts 281°
2026-05-09 06:19 6.09301 7.13554 5978 ft 155 kts 281°
2026-05-09 06:19 6.09489 7.12489 5966 ft 156 kts 281°
2026-05-09 06:19 6.09680 7.11406 5974 ft 155 kts 281°
2026-05-09 06:20 6.09868 7.10343 5976 ft 155 kts 281°
2026-05-09 06:20 6.10054 7.09284 5971 ft 154 kts 281°
2026-05-09 06:20 6.10240 7.08218 5975 ft 153 kts 281°
2026-05-09 06:20 6.10425 7.07147 5963 ft 154 kts 281°
2026-05-09 06:21 6.10607 7.06100 5964 ft 154 kts 281°
2026-05-09 06:21 6.10794 7.05024 5952 ft 156 kts 281°
2026-05-09 06:21 6.10983 7.03949 5970 ft 155 kts 281°
2026-05-09 06:21 6.11170 7.02877 5961 ft 156 kts 281°
2026-05-09 06:22 6.11361 7.01810 5975 ft 155 kts 281°
2026-05-09 06:22 6.11551 7.00744 5966 ft 156 kts 281°
2026-05-09 06:22 6.11744 6.99669 5972 ft 156 kts 282°
2026-05-09 06:22 6.11937 6.98592 5970 ft 156 kts 282°
2026-05-09 06:23 6.12132 6.97513 5979 ft 154 kts 281°
2026-05-09 06:23 6.12323 6.96447 5959 ft 155 kts 282°
2026-05-09 06:23 6.12516 6.95379 5968 ft 154 kts 281°
2026-05-09 06:23 6.12707 6.94310 5964 ft 154 kts 281°
2026-05-09 06:24 6.12896 6.93255 5949 ft 156 kts 281°
2026-05-09 06:24 6.13090 6.92174 5964 ft 155 kts 281°
2026-05-09 06:24 6.13281 6.91111 5958 ft 156 kts 282°
2026-05-09 06:24 6.13475 6.90030 5961 ft 156 kts 282°
2026-05-09 06:25 6.13666 6.88955 5963 ft 156 kts 282°
2026-05-09 06:25 6.13857 6.87890 5966 ft 155 kts 282°
2026-05-09 06:25 6.14049 6.86821 5969 ft 154 kts 282°
2026-05-09 06:25 6.14241 6.85757 5962 ft 154 kts 282°
2026-05-09 06:26 6.14432 6.84695 5956 ft 155 kts 282°
2026-05-09 06:26 6.14625 6.83624 5948 ft 156 kts 282°
2026-05-09 06:26 6.14819 6.82549 5963 ft 154 kts 282°
2026-05-09 06:26 6.15009 6.81481 5950 ft 156 kts 282°
2026-05-09 06:27 6.15201 6.80408 5950 ft 156 kts 282°
2026-05-09 06:27 6.15392 6.79344 5952 ft 156 kts 282°
2026-05-09 06:27 6.15585 6.78267 5947 ft 156 kts 282°
2026-05-09 06:27 6.15776 6.77199 5947 ft 156 kts 282°
2026-05-09 06:28 6.15970 6.76119 5960 ft 155 kts 282°
2026-05-09 06:28 6.16162 6.75039 5952 ft 156 kts 282°
2026-05-09 06:28 6.16354 6.73977 5958 ft 156 kts 282°
2026-05-09 06:28 6.16547 6.72900 5964 ft 155 kts 282°
2026-05-09 06:29 6.16738 6.71833 5951 ft 156 kts 282°
2026-05-09 06:29 6.16930 6.70763 5954 ft 156 kts 282°
2026-05-09 06:29 6.17121 6.69690 5961 ft 155 kts 282°
2026-05-09 06:29 6.17313 6.68618 5947 ft 156 kts 282°
2026-05-09 06:30 6.17507 6.67532 5947 ft 156 kts 282°
2026-05-09 06:30 6.17698 6.66472 5962 ft 156 kts 282°
2026-05-09 06:30 6.17890 6.65400 5963 ft 156 kts 282°
2026-05-09 06:30 6.18082 6.64323 5967 ft 156 kts 282°
2026-05-09 06:31 6.18275 6.63244 5978 ft 156 kts 281°
2026-05-09 06:31 6.18468 6.62173 5973 ft 156 kts 281°
2026-05-09 06:31 6.18660 6.61098 5973 ft 156 kts 281°
2026-05-09 06:31 6.18853 6.60007 5967 ft 157 kts 282°
2026-05-09 06:32 6.19044 6.58930 5972 ft 156 kts 282°
2026-05-09 06:32 6.19234 6.57870 5969 ft 156 kts 282°
2026-05-09 06:32 6.19427 6.56796 5977 ft 155 kts 282°
2026-05-09 06:33 6.19812 6.54649 5966 ft 155 kts 282°
2026-05-09 06:33 6.20004 6.53582 5966 ft 155 kts 282°
2026-05-09 06:33 6.20194 6.52515 5964 ft 156 kts 282°
2026-05-09 06:34 6.20580 6.50354 5966 ft 157 kts 282°
2026-05-09 06:34 6.20769 6.49291 5970 ft 156 kts 282°
2026-05-09 06:34 6.20961 6.48210 5972 ft 157 kts 281°
2026-05-09 06:34 6.21153 6.47123 5978 ft 157 kts 282°
2026-05-09 06:35 6.21344 6.46045 5983 ft 156 kts 282°
2026-05-09 06:35 6.21533 6.44968 5975 ft 156 kts 282°
2026-05-09 06:35 6.21724 6.43895 5986 ft 155 kts 282°
2026-05-09 06:35 6.21911 6.42830 5973 ft 156 kts 282°
2026-05-09 06:36 6.22102 6.41750 5967 ft 156 kts 282°
2026-05-09 06:36 6.22293 6.40676 5965 ft 156 kts 282°
2026-05-09 06:36 6.22484 6.39599 5970 ft 156 kts 282°
2026-05-09 06:36 6.22673 6.38526 5965 ft 157 kts 282°
2026-05-09 06:37 6.22865 6.37441 5978 ft 156 kts 282°
2026-05-09 06:37 6.23055 6.36366 5975 ft 157 kts 282°
2026-05-09 06:37 6.23246 6.35288 5978 ft 156 kts 282°
2026-05-09 06:37 6.23438 6.34200 5979 ft 156 kts 282°
2026-05-09 06:38 6.23628 6.33128 5973 ft 156 kts 282°
2026-05-09 06:38 6.23818 6.32055 5969 ft 156 kts 282°
2026-05-09 06:38 6.24010 6.30980 5972 ft 156 kts 282°
2026-05-09 06:38 6.24198 6.29918 5975 ft 155 kts 282°
2026-05-09 06:39 6.24389 6.28838 5970 ft 156 kts 282°
2026-05-09 06:39 6.24576 6.27771 5968 ft 156 kts 282°
2026-05-09 06:39 6.24768 6.26686 5968 ft 156 kts 282°
2026-05-09 06:39 6.24960 6.25602 5968 ft 157 kts 282°
2026-05-09 06:40 6.25149 6.24533 5977 ft 157 kts 282°
2026-05-09 06:40 6.25341 6.23448 5989 ft 156 kts 282°
2026-05-09 06:40 6.25531 6.22364 5983 ft 156 kts 282°
2026-05-09 06:40 6.25722 6.21281 5967 ft 157 kts 282°
2026-05-09 06:41 6.25912 6.20212 5965 ft 157 kts 282°
2026-05-09 06:41 6.26106 6.19118 5965 ft 157 kts 282°
2026-05-09 06:41 6.26295 6.18051 5965 ft 156 kts 281°
2026-05-09 06:41 6.26484 6.16969 5957 ft 157 kts 282°
2026-05-09 06:42 6.26673 6.15893 5959 ft 156 kts 282°
2026-05-09 06:42 6.26865 6.14803 5951 ft 156 kts 282°
2026-05-09 06:42 6.27053 6.13728 5949 ft 156 kts 282°
2026-05-09 06:42 6.27244 6.12648 5947 ft 156 kts 282°
2026-05-09 06:43 6.27433 6.11580 5952 ft 156 kts 282°
2026-05-09 06:43 6.27623 6.10504 5940 ft 157 kts 282°
2026-05-09 06:43 6.27816 6.09412 5943 ft 156 kts 282°
2026-05-09 06:43 6.28006 6.08336 5949 ft 156 kts 282°
2026-05-09 06:44 6.28195 6.07261 5951 ft 156 kts 282°
2026-05-09 06:44 6.28385 6.06183 5951 ft 155 kts 282°
2026-05-09 06:44 6.28573 6.05112 5945 ft 156 kts 282°
2026-05-09 06:44 6.28763 6.04033 5945 ft 156 kts 282°
2026-05-09 06:45 6.28952 6.02959 5939 ft 156 kts 282°
2026-05-09 06:45 6.29142 6.01887 5944 ft 156 kts 282°
2026-05-09 06:45 6.29329 6.00821 5940 ft 156 kts 282°
2026-05-09 06:45 6.29520 5.99736 5935 ft 157 kts 282°
2026-05-09 06:46 6.29710 5.98657 5946 ft 157 kts 282°
2026-05-09 06:46 6.29901 5.97577 5946 ft 157 kts 282°
2026-05-09 06:46 6.30092 5.96491 5954 ft 156 kts 282°
2026-05-09 06:46 6.30281 5.95410 5954 ft 156 kts 282°
2026-05-09 06:47 6.30470 5.94343 5957 ft 156 kts 282°
2026-05-09 06:47 6.30658 5.93264 5949 ft 156 kts 282°
2026-05-09 06:47 6.30850 5.92178 5959 ft 156 kts 282°
2026-05-09 06:47 6.31038 5.91105 5949 ft 156 kts 282°
2026-05-09 06:48 6.31226 5.90037 5949 ft 156 kts 282°
2026-05-09 06:48 6.31419 5.88943 5947 ft 157 kts 282°
2026-05-09 06:48 6.31608 5.87866 5948 ft 157 kts 282°
2026-05-09 06:48 6.31799 5.86786 5962 ft 156 kts 282°
2026-05-09 06:49 6.31989 5.85702 5958 ft 156 kts 282°
2026-05-09 06:49 6.32177 5.84633 5955 ft 156 kts 282°
2026-05-09 06:49 6.32368 5.83545 5947 ft 156 kts 282°
2026-05-09 06:49 6.32556 5.82474 5948 ft 157 kts 282°
2026-05-09 06:50 6.32746 5.81399 5957 ft 156 kts 282°
2026-05-09 06:50 6.32934 5.80322 5951 ft 156 kts 282°
2026-05-09 06:50 6.33121 5.79249 5944 ft 156 kts 282°
2026-05-09 06:50 6.33315 5.78157 5944 ft 157 kts 282°
2026-05-09 06:51 6.33502 5.77088 5949 ft 156 kts 282°
2026-05-09 06:51 6.33692 5.76009 5941 ft 157 kts 282°
2026-05-09 06:51 6.33882 5.74926 5943 ft 157 kts 282°
2026-05-09 06:51 6.34073 5.73839 5951 ft 157 kts 282°
2026-05-09 06:52 6.34260 5.72764 5944 ft 158 kts 282°
2026-05-09 06:52 6.34452 5.71671 5953 ft 157 kts 282°
2026-05-09 06:52 6.34642 5.70589 5945 ft 157 kts 282°
2026-05-09 06:52 6.34832 5.69503 5945 ft 157 kts 282°
2026-05-09 06:53 6.35022 5.68428 5954 ft 156 kts 282°
2026-05-09 06:53 6.35210 5.67357 5954 ft 156 kts 282°
2026-05-09 06:53 6.35398 5.66285 5944 ft 156 kts 282°
2026-05-09 06:53 6.35589 5.65194 5944 ft 156 kts 282°
2026-05-09 06:54 6.35778 5.64114 5946 ft 156 kts 283°
2026-05-09 06:54 6.35966 5.63041 5939 ft 157 kts 283°
2026-05-09 06:54 6.36157 5.61954 5944 ft 157 kts 282°
2026-05-09 06:54 6.36346 5.60872 5949 ft 157 kts 282°
2026-05-09 06:55 6.36534 5.59796 5956 ft 157 kts 283°
2026-05-09 06:55 6.36725 5.58707 5949 ft 157 kts 282°
2026-05-09 06:55 6.36913 5.57637 5953 ft 157 kts 283°
2026-05-09 06:55 6.37103 5.56554 5954 ft 157 kts 283°
2026-05-09 06:56 6.37294 5.55466 5955 ft 156 kts 283°
2026-05-09 06:56 6.37482 5.54395 5956 ft 156 kts 282°
2026-05-09 06:56 6.37669 5.53323 5948 ft 157 kts 282°
2026-05-09 06:56 6.37861 5.52230 5942 ft 157 kts 283°
2026-05-09 06:57 6.38049 5.51156 5954 ft 156 kts 282°
2026-05-09 06:57 6.38238 5.50074 5946 ft 157 kts 282°
2026-05-09 06:57 6.38425 5.49000 5950 ft 157 kts 282°
2026-05-09 06:57 6.38616 5.47906 5943 ft 157 kts 283°
2026-05-09 06:58 6.38806 5.46830 5953 ft 156 kts 283°
2026-05-09 06:58 6.38994 5.45749 5947 ft 157 kts 283°
2026-05-09 06:58 6.39183 5.44662 5947 ft 157 kts 283°
2026-05-09 06:58 6.39374 5.43584 5956 ft 156 kts 283°
2026-05-09 06:59 6.39561 5.42509 5943 ft 158 kts 283°
2026-05-09 06:59 6.39752 5.41420 5950 ft 158 kts 282°
2026-05-09 06:59 6.39943 5.40322 5950 ft 158 kts 283°
2026-05-09 06:59 6.40132 5.39243 5951 ft 158 kts 283°
2026-05-09 07:00 6.40323 5.38148 5955 ft 158 kts 283°
2026-05-09 07:00 6.40513 5.37065 5951 ft 158 kts 283°
2026-05-09 07:00 6.40702 5.35984 5959 ft 156 kts 283°
2026-05-09 07:00 6.40892 5.34896 5945 ft 158 kts 283°
2026-05-09 07:01 6.41082 5.33807 5947 ft 157 kts 283°
2026-05-09 07:01 6.41272 5.32726 5948 ft 158 kts 283°
2026-05-09 07:01 6.41462 5.31644 5957 ft 157 kts 283°
2026-05-09 07:01 6.41653 5.30546 5948 ft 158 kts 283°
2026-05-09 07:02 6.41845 5.29454 5959 ft 158 kts 283°
2026-05-09 07:02 6.42032 5.28377 5969 ft 157 kts 283°
2026-05-09 07:02 6.42223 5.27283 5955 ft 158 kts 283°
2026-05-09 07:02 6.42414 5.26196 5957 ft 158 kts 283°
2026-05-09 07:03 6.42605 5.25104 5970 ft 157 kts 283°
2026-05-09 07:03 6.42796 5.24014 5962 ft 157 kts 283°
2026-05-09 07:03 6.42985 5.22925 5966 ft 157 kts 283°
2026-05-09 07:03 6.43172 5.21849 5955 ft 158 kts 283°
2026-05-09 07:04 6.43364 5.20757 5959 ft 158 kts 283°
2026-05-09 07:04 6.43554 5.19669 5972 ft 157 kts 283°
2026-05-09 07:04 6.43742 5.18588 5971 ft 157 kts 283°
2026-05-09 07:04 6.43932 5.17494 5967 ft 157 kts 283°
2026-05-09 07:05 6.44123 5.16400 5956 ft 158 kts 283°
2026-05-09 07:05 6.44313 5.15316 5965 ft 157 kts 283°
2026-05-09 07:05 6.44501 5.14224 5948 ft 158 kts 283°
2026-05-09 07:05 6.44693 5.13127 5949 ft 158 kts 283°
2026-05-09 07:06 6.44882 5.12046 5961 ft 157 kts 283°
2026-05-09 07:06 6.45071 5.10962 5946 ft 158 kts 283°
2026-05-09 07:06 6.45261 5.09870 5949 ft 158 kts 283°
2026-05-09 07:06 6.45451 5.08781 5957 ft 157 kts 283°
2026-05-09 07:07 6.45641 5.07680 5946 ft 158 kts 283°
2026-05-09 07:07 6.45832 5.06591 5951 ft 158 kts 283°
2026-05-09 07:07 6.46020 5.05511 5955 ft 158 kts 283°
2026-05-09 07:07 6.46211 5.04410 5957 ft 157 kts 283°
2026-05-09 07:08 6.46398 5.03333 5941 ft 159 kts 283°
2026-05-09 07:08 6.46589 5.02239 5953 ft 158 kts 283°
2026-05-09 07:08 6.46779 5.01140 5948 ft 158 kts 283°
2026-05-09 07:08 6.46971 5.00053 5955 ft 157 kts 283°
2026-05-09 07:09 6.47159 4.98970 5947 ft 158 kts 283°
2026-05-09 07:09 6.47349 4.97878 5952 ft 158 kts 283°
2026-05-09 07:09 6.47539 4.96779 5942 ft 159 kts 283°
2026-05-09 07:09 6.47731 4.95678 5947 ft 159 kts 283°
2026-05-09 07:10 6.47921 4.94579 5954 ft 158 kts 283°
2026-05-09 07:10 6.48112 4.93493 5959 ft 158 kts 283°
2026-05-09 07:10 6.48302 4.92400 5958 ft 158 kts 283°
2026-05-09 07:10 6.48491 4.91307 5951 ft 158 kts 283°
2026-05-09 07:11 6.48679 4.90221 5946 ft 158 kts 283°
2026-05-09 07:11 6.48870 4.89124 5950 ft 158 kts 283°
2026-05-09 07:11 6.49059 4.88034 5939 ft 159 kts 283°
2026-05-09 07:11 6.49251 4.86931 5950 ft 158 kts 283°
2026-05-09 07:12 6.49439 4.85857 5946 ft 158 kts 283°
2026-05-09 07:12 6.49628 4.84767 5939 ft 158 kts 283°
2026-05-09 07:12 6.49817 4.83677 5932 ft 159 kts 283°
2026-05-09 07:12 6.50008 4.82581 5944 ft 158 kts 283°
2026-05-09 07:13 6.50198 4.81484 5945 ft 158 kts 283°
2026-05-09 07:13 6.50387 4.80394 5936 ft 158 kts 283°
2026-05-09 07:13 6.50575 4.79298 5938 ft 159 kts 282°
2026-05-09 07:13 6.50731 4.78199 5951 ft 158 kts 281°
2026-05-09 07:14 6.50883 4.77102 5944 ft 159 kts 281°
2026-05-09 07:14 6.51036 4.76007 5944 ft 159 kts 281°
2026-05-09 07:14 6.51189 4.74894 5942 ft 160 kts 281°
2026-05-09 07:14 6.51342 4.73788 5950 ft 159 kts 281°
2026-05-09 07:15 6.51495 4.72689 5956 ft 159 kts 281°
2026-05-09 07:15 6.51648 4.71589 5958 ft 159 kts 281°
2026-05-09 07:15 6.51800 4.70478 5948 ft 159 kts 281°
2026-05-09 07:15 6.51953 4.69383 5950 ft 159 kts 281°
2026-05-09 07:16 6.52105 4.68280 5948 ft 159 kts 281°
2026-05-09 07:16 6.52259 4.67172 5948 ft 159 kts 281°
2026-05-09 07:16 6.52410 4.66075 5945 ft 160 kts 281°
2026-05-09 07:16 6.52564 4.64966 5957 ft 159 kts 281°
2026-05-09 07:17 6.52716 4.63864 5954 ft 159 kts 281°
2026-05-09 07:17 6.52869 4.62753 5954 ft 159 kts 281°
2026-05-09 07:17 6.53021 4.61648 5948 ft 160 kts 281°
2026-05-09 07:17 6.53175 4.60531 5947 ft 160 kts 281°
2026-05-09 07:18 6.53324 4.59430 5948 ft 160 kts 281°
2026-05-09 07:18 6.53476 4.58318 5957 ft 159 kts 281°
2026-05-09 07:18 6.53626 4.57219 5942 ft 160 kts 281°
2026-05-09 07:18 6.53780 4.56100 5948 ft 159 kts 281°
2026-05-09 07:19 6.53929 4.55001 5952 ft 159 kts 281°
2026-05-09 07:19 6.54081 4.53900 5948 ft 159 kts 281°
2026-05-09 07:19 6.54232 4.52782 5947 ft 159 kts 281°
2026-05-09 07:19 6.54382 4.51685 5952 ft 159 kts 281°
2026-05-09 07:20 6.54533 4.50570 5952 ft 159 kts 281°
2026-05-09 07:20 6.54680 4.49477 5953 ft 159 kts 281°
2026-05-09 07:20 6.54833 4.48358 5950 ft 159 kts 281°
2026-05-09 07:20 6.54983 4.47247 5944 ft 160 kts 281°
2026-05-09 07:21 6.55123 4.46232 5950 ft 160 kts 281°
2026-05-09 07:21 6.55272 4.45127 5953 ft 159 kts 281°
2026-05-09 07:21 6.55423 4.44021 5942 ft 160 kts 281°
2026-05-09 07:21 6.55575 4.42908 5947 ft 160 kts 281°
2026-05-09 07:22 6.55727 4.41795 5954 ft 160 kts 281°
2026-05-09 07:22 6.55877 4.40692 5957 ft 159 kts 282°
2026-05-09 07:22 6.56034 4.39569 5942 ft 161 kts 281°
2026-05-09 07:22 6.56187 4.38466 5955 ft 159 kts 281°
2026-05-09 07:23 6.56339 4.37366 5947 ft 160 kts 281°
2026-05-09 07:23 6.56493 4.36250 5939 ft 160 kts 281°
2026-05-09 07:23 6.56646 4.35143 5946 ft 160 kts 282°
2026-05-09 07:23 6.56803 4.34022 5949 ft 160 kts 281°
2026-05-09 07:24 6.56958 4.32914 5940 ft 160 kts 281°
2026-05-09 07:24 6.57110 4.31811 5940 ft 161 kts 281°
2026-05-09 07:24 6.57266 4.30687 5942 ft 161 kts 281°
2026-05-09 07:24 6.57422 4.29576 5951 ft 161 kts 281°
2026-05-09 07:25 6.57576 4.28466 5956 ft 160 kts 281°
2026-05-09 07:25 6.57731 4.27343 5954 ft 160 kts 281°
2026-05-09 07:25 6.57886 4.26241 5959 ft 159 kts 281°
2026-05-09 07:25 6.58038 4.25130 5950 ft 160 kts 281°
2026-05-09 07:26 6.58193 4.24013 5944 ft 161 kts 281°
2026-05-09 07:26 6.58346 4.22912 5945 ft 161 kts 281°
2026-05-09 07:26 6.58502 4.21788 5951 ft 160 kts 281°
2026-05-09 07:26 6.58656 4.20680 5948 ft 161 kts 282°
2026-05-09 07:27 6.58812 4.19553 5944 ft 161 kts 281°
2026-05-09 07:27 6.58967 4.18440 5956 ft 161 kts 281°
2026-05-09 07:27 6.59120 4.17323 5948 ft 161 kts 281°
2026-05-09 07:27 6.59276 4.16198 5941 ft 162 kts 281°
2026-05-09 07:28 6.59429 4.15093 5951 ft 161 kts 282°
2026-05-09 07:28 6.59584 4.13975 5945 ft 161 kts 282°
2026-05-09 07:28 6.59741 4.12847 5950 ft 160 kts 282°
2026-05-09 07:28 6.59894 4.11739 5944 ft 161 kts 281°
2026-05-09 07:29 6.60049 4.10624 5946 ft 160 kts 281°
2026-05-09 07:29 6.60203 4.09505 5936 ft 161 kts 282°
2026-05-09 07:29 6.60359 4.08386 5944 ft 160 kts 281°
2026-05-09 07:29 6.60512 4.07279 5938 ft 161 kts 281°
2026-05-09 07:30 6.60664 4.06169 5938 ft 161 kts 282°
2026-05-09 07:30 6.60819 4.05041 5937 ft 162 kts 282°
2026-05-09 07:30 6.60977 4.03914 5950 ft 161 kts 282°
2026-05-09 07:30 6.61130 4.02801 5944 ft 162 kts 282°
2026-05-09 07:31 6.61286 4.01682 5947 ft 161 kts 282°
2026-05-09 07:31 6.61439 4.00573 5949 ft 161 kts 282°
2026-05-09 07:31 6.61594 3.99450 5949 ft 161 kts 282°
2026-05-09 07:31 6.61750 3.98334 5950 ft 160 kts 281°
2026-05-09 07:32 6.61902 3.97223 5941 ft 160 kts 281°
2026-05-09 07:32 6.62056 3.96100 5933 ft 161 kts 281°
2026-05-09 07:32 6.62212 3.94986 5939 ft 161 kts 281°
2026-05-09 07:32 6.62366 3.93869 5944 ft 160 kts 281°
2026-05-09 07:33 6.62518 3.92766 5940 ft 160 kts 281°
2026-05-09 07:33 6.62826 3.90523 5940 ft 161 kts 281°
2026-05-09 07:33 6.62979 3.89412 5947 ft 161 kts 281°
2026-05-09 07:34 6.63133 3.88293 5953 ft 161 kts 282°
2026-05-09 07:34 6.63288 3.87174 5957 ft 161 kts 282°
2026-05-09 07:34 6.63443 3.86054 5956 ft 161 kts 281°
2026-05-09 07:34 6.63598 3.84929 5958 ft 160 kts 281°
2026-05-09 07:35 6.63750 3.83829 5950 ft 161 kts 281°
2026-05-09 07:35 6.63905 3.82700 5947 ft 161 kts 281°
2026-05-09 07:35 6.64060 3.81578 5949 ft 161 kts 281°
2026-05-09 07:35 6.64214 3.80462 5954 ft 160 kts 281°
2026-05-09 07:36 6.64365 3.79355 5940 ft 161 kts 281°
2026-05-09 07:36 6.64520 3.78233 5946 ft 161 kts 281°
2026-05-09 07:36 6.64675 3.77106 5945 ft 161 kts 281°
2026-05-09 07:36 6.64828 3.75995 5953 ft 161 kts 281°
2026-05-09 07:37 6.64982 3.74869 5950 ft 161 kts 281°
2026-05-09 07:37 6.65136 3.73754 5963 ft 160 kts 281°
2026-05-09 07:37 6.65291 3.72633 5960 ft 160 kts 281°
2026-05-09 07:37 6.65444 3.71521 5954 ft 160 kts 281°
2026-05-09 07:38 6.65596 3.70405 5946 ft 161 kts 281°
2026-05-09 07:38 6.65748 3.69302 5955 ft 160 kts 281°
2026-05-09 07:38 6.65901 3.68187 5947 ft 160 kts 281°
2026-05-09 07:38 6.66056 3.67060 5949 ft 161 kts 281°
2026-05-09 07:39 6.66211 3.65946 5955 ft 160 kts 281°
2026-05-09 07:39 6.66363 3.64834 5955 ft 161 kts 281°
2026-05-09 07:39 6.66515 3.63727 5960 ft 160 kts 281°
2026-05-09 07:39 6.66669 3.62609 5952 ft 160 kts 281°
2026-05-09 07:40 6.66820 3.61502 5949 ft 161 kts 281°
2026-05-09 07:40 6.66974 3.60384 5954 ft 160 kts 281°
2026-05-09 07:40 6.67129 3.59261 5955 ft 160 kts 281°
2026-05-09 07:40 6.67280 3.58152 5945 ft 161 kts 281°
2026-05-09 07:41 6.67434 3.57039 5953 ft 161 kts 281°
2026-05-09 07:41 6.67589 3.55910 5955 ft 160 kts 281°
2026-05-09 07:41 6.67741 3.54797 5954 ft 160 kts 281°
2026-05-09 07:41 6.67894 3.53685 5950 ft 160 kts 281°
2026-05-09 07:42 6.68046 3.52577 5948 ft 160 kts 281°
2026-05-09 07:42 6.68199 3.51458 5950 ft 160 kts 281°
2026-05-09 07:42 6.68352 3.50347 5949 ft 161 kts 281°
2026-05-09 07:42 6.68503 3.49238 5954 ft 161 kts 281°
2026-05-09 07:43 6.68656 3.48126 5961 ft 160 kts 281°
2026-05-09 07:43 6.68810 3.46999 5954 ft 161 kts 281°
2026-05-09 07:43 6.68963 3.45886 5956 ft 161 kts 281°
2026-05-09 07:43 6.69116 3.44773 5957 ft 161 kts 281°
2026-05-09 07:44 6.69271 3.43647 5961 ft 160 kts 281°
2026-05-09 07:44 6.69423 3.42542 5959 ft 161 kts 281°
2026-05-09 07:44 6.69575 3.41426 5964 ft 160 kts 281°
2026-05-09 07:44 6.69729 3.40297 5973 ft 161 kts 281°
2026-05-09 07:45 6.69880 3.39186 5969 ft 161 kts 281°
2026-05-09 07:45 6.70035 3.38067 5960 ft 160 kts 281°
2026-05-09 07:45 6.70186 3.36965 5963 ft 160 kts 281°
2026-05-09 07:45 6.70339 3.35847 5955 ft 160 kts 281°
2026-05-09 07:46 6.70491 3.34735 5949 ft 160 kts 281°
2026-05-09 07:46 6.70642 3.33627 5945 ft 161 kts 281°
2026-05-09 07:46 6.70851 3.32533 5941 ft 158 kts 298°
2026-05-09 07:46 6.71598 3.31794 5940 ft 146 kts 345°
2026-05-09 07:47 6.72579 3.31634 5951 ft 141 kts
2026-05-09 07:47 6.73552 3.31513 5964 ft 141 kts 360°
2026-05-09 07:47 6.74528 3.31393 5962 ft 141 kts 359°
2026-05-09 07:47 6.75516 3.31278 5962 ft 140 kts 360°
2026-05-09 07:48 6.76482 3.31165 5956 ft 140 kts 360°
2026-05-09 07:48 6.77472 3.31043 5949 ft 140 kts 360°
2026-05-09 07:48 6.78422 3.31093 5929 ft 134 kts 30°
2026-05-09 07:48 6.78983 3.31770 5932 ft 128 kts 76°
2026-05-09 07:49 6.78789 3.32638 5936 ft 135 kts 122°
2026-05-09 07:49 6.77923 3.33089 5943 ft 149 kts 169°
2026-05-09 07:49 6.76867 3.32934 5956 ft 153 kts 184°
2026-05-09 07:49 6.75813 3.32815 5966 ft 151 kts 178°
2026-05-09 07:50 6.74769 3.32770 5960 ft 150 kts 175°
2026-05-09 07:50 6.73720 3.32753 5954 ft 150 kts 174°
2026-05-09 07:50 6.72667 3.32749 5953 ft 150 kts 174°
2026-05-09 07:50 6.71614 3.32748 5952 ft 150 kts 173°
2026-05-09 07:51 6.70571 3.32785 5938 ft 148 kts 161°
2026-05-09 07:51 6.69811 3.33364 5947 ft 134 kts 112°
2026-05-09 07:51 6.69782 3.34250 5954 ft 129 kts 65°
2026-05-09 07:51 6.70461 3.34813 5959 ft 135 kts 20°
2026-05-09 07:52 6.71402 3.34973 5964 ft 137 kts 14°
2026-05-09 07:52 6.72352 3.35124 5958 ft 137 kts 15°
2026-05-09 07:52 6.73297 3.35278 5965 ft 136 kts 15°
2026-05-09 07:52 6.74242 3.35445 5961 ft 136 kts 15°
2026-05-09 07:53 6.75194 3.35459 5945 ft 145 kts 347°
2026-05-09 07:53 6.75976 3.34775 5957 ft 156 kts 302°
2026-05-09 07:53 6.76119 3.33688 5961 ft 162 kts 258°
2026-05-09 07:53 6.75529 3.32754 5961 ft 159 kts 213°
2026-05-09 07:54 6.74510 3.32441 5956 ft 149 kts 168°
2026-05-09 07:54 6.73488 3.32585 5962 ft 148 kts 165°
2026-05-09 07:54 6.72447 3.32668 5963 ft 150 kts 169°
2026-05-09 07:54 6.71397 3.32709 5963 ft 150 kts 171°
2026-05-09 07:55 6.70378 3.32830 5950 ft 143 kts 149°
2026-05-09 07:55 6.69726 3.33503 5949 ft 132 kts 105°
2026-05-09 07:55 6.69782 3.34381 5953 ft 129 kts 62°
2026-05-09 07:55 6.70491 3.34919 5963 ft 134 kts 19°
2026-05-09 07:56 6.71414 3.35091 5965 ft 135 kts 16°
2026-05-09 07:56 6.72351 3.35258 5959 ft 135 kts 15°
2026-05-09 07:56 6.73287 3.35422 5958 ft 134 kts 16°
2026-05-09 07:56 6.74212 3.35594 5945 ft 135 kts 16°
2026-05-09 07:57 6.75171 3.35626 5936 ft 144 kts 348°
2026-05-09 07:57 6.75958 3.34969 5948 ft 156 kts 303°
2026-05-09 07:57 6.76126 3.33893 5959 ft 162 kts 259°
2026-05-09 07:57 6.75549 3.32935 5963 ft 160 kts 215°
2026-05-09 07:58 6.74543 3.32597 5967 ft 150 kts 171°
2026-05-09 07:58 6.73492 3.32665 5972 ft 149 kts 169°
2026-05-09 07:58 6.72458 3.32707 5972 ft 150 kts 171°
2026-05-09 07:58 6.71403 3.32729 5962 ft 150 kts 172°
2026-05-09 07:59 6.70367 3.32841 5938 ft 145 kts 149°
2026-05-09 07:59 6.69721 3.33514 5959 ft 131 kts 104°
2026-05-09 07:59 6.69795 3.34386 5954 ft 128 kts 60°
2026-05-09 07:59 6.70523 3.34888 5965 ft 134 kts 18°
2026-05-09 08:00 6.71465 3.35057 5969 ft 135 kts 15°
2026-05-09 08:00 6.72395 3.35220 5955 ft 137 kts 15°
2026-05-09 08:00 6.73356 3.35377 5960 ft 137 kts 14°
2026-05-09 08:00 6.74289 3.35531 5959 ft 136 kts 15°
2026-05-09 08:01 6.75248 3.35482 5949 ft 146 kts 342°
2026-05-09 08:01 6.75971 3.34731 5950 ft 158 kts 297°
2026-05-09 08:01 6.76023 3.33626 5965 ft 162 kts 252°
2026-05-09 08:01 6.75354 3.32747 5967 ft 158 kts 207°
2026-05-09 08:02 6.74326 3.32528 5963 ft 148 kts 166°
2026-05-09 08:02 6.73295 3.32636 5962 ft 149 kts 167°
2026-05-09 08:02 6.72248 3.32694 5970 ft 149 kts 169°
2026-05-09 08:02 6.71204 3.32722 5964 ft 150 kts 171°
2026-05-09 08:03 6.70203 3.32923 5952 ft 141 kts 141°
2026-05-09 08:03 6.69669 3.33680 5954 ft 131 kts 97°
2026-05-09 08:03 6.69874 3.34534 5959 ft 129 kts 53°
2026-05-09 08:03 6.70674 3.34963 5967 ft 135 kts 16°
2026-05-09 08:04 6.71603 3.35118 5968 ft 136 kts 15°
2026-05-09 08:04 6.72545 3.35279 5959 ft 137 kts 15°
2026-05-09 08:04 6.73485 3.35440 5959 ft 137 kts 15°
2026-05-09 08:04 6.74441 3.35602 5963 ft 136 kts 16°
2026-05-09 08:05 6.75398 3.35475 5951 ft 148 kts 336°
2026-05-09 08:05 6.76055 3.34665 5952 ft 159 kts 292°
2026-05-09 08:05 6.76024 3.33538 5959 ft 163 kts 248°
2026-05-09 08:05 6.75294 3.32706 5958 ft 159 kts 204°
2026-05-09 08:06 6.74247 3.32543 5963 ft 149 kts 165°
2026-05-09 08:06 6.73215 3.32644 5969 ft 150 kts 168°
2026-05-09 08:06 6.72159 3.32698 5976 ft 150 kts 170°
2026-05-09 08:06 6.71110 3.32724 5969 ft 151 kts 172°
2026-05-09 08:07 6.70128 3.32973 5962 ft 140 kts 136°
2026-05-09 08:07 6.69665 3.33760 5967 ft 129 kts 92°
2026-05-09 08:07 6.69953 3.34587 5952 ft 130 kts 48°
2026-05-09 08:07 6.70790 3.34950 5963 ft 136 kts 16°
2026-05-09 08:08 6.71731 3.35106 5967 ft 136 kts 15°
2026-05-09 08:08 6.72667 3.35267 5963 ft 136 kts 16°
2026-05-09 08:08 6.73611 3.35436 5959 ft 136 kts 16°
2026-05-09 08:08 6.74547 3.35602 5962 ft 135 kts 16°
2026-05-09 08:09 6.75503 3.35416 5951 ft 148 kts 333°
2026-05-09 08:09 6.76108 3.34569 5961 ft 159 kts 289°
2026-05-09 08:09 6.76021 3.33452 5962 ft 164 kts 245°
2026-05-09 08:09 6.75254 3.32653 5965 ft 158 kts 201°
2026-05-09 08:10 6.74204 3.32530 5971 ft 148 kts 164°
2026-05-09 08:10 6.73173 3.32637 5970 ft 149 kts 167°
2026-05-09 08:10 6.72128 3.32694 5967 ft 150 kts 170°
2026-05-09 08:10 6.71075 3.32723 5960 ft 150 kts 171°
2026-05-09 08:11 6.70114 3.32985 5955 ft 139 kts 135°
2026-05-09 08:11 6.69664 3.33784 5966 ft 128 kts 91°
2026-05-09 08:11 6.69963 3.34595 5959 ft 129 kts 47°
2026-05-09 08:11 6.70797 3.34951 5962 ft 135 kts 17°
2026-05-09 08:12 6.72667 3.35284 5965 ft 136 kts 16°
2026-05-09 08:12 6.73613 3.35457 5969 ft 135 kts 17°
2026-05-09 08:12 6.74549 3.35629 5963 ft 135 kts 16°
2026-05-09 08:13 6.75492 3.35417 5960 ft 148 kts 331°
2026-05-09 08:13 6.76075 3.34545 5971 ft 159 kts 287°
2026-05-09 08:13 6.75946 3.33442 5975 ft 163 kts 242°
2026-05-09 08:13 6.75143 3.32676 5967 ft 158 kts 198°
2026-05-09 08:14 6.74094 3.32586 5975 ft 149 kts 166°
2026-05-09 08:14 6.73044 3.32668 5982 ft 149 kts 169°
2026-05-09 08:14 6.72541 3.32692 5972 ft 150 kts 170°
2026-05-09 08:14 6.71493 3.32720 5953 ft 150 kts 171°
2026-05-09 08:15 6.70354 3.32844 5934 ft 143 kts 148°
2026-05-09 08:15 6.69717 3.33526 5950 ft 131 kts 104°
2026-05-09 08:15 6.69800 3.34397 5960 ft 128 kts 60°
2026-05-09 08:15 6.70519 3.34903 5970 ft 134 kts 18°
2026-05-09 08:16 6.71455 3.35072 5981 ft 135 kts 16°
2026-05-09 08:16 6.72376 3.35241 5982 ft 134 kts 17°
2026-05-09 08:16 6.73301 3.35415 5976 ft 134 kts 16°
2026-05-09 08:16 6.74233 3.35587 5968 ft 134 kts 17°
2026-05-09 08:17 6.75183 3.35613 5941 ft 144 kts 348°
2026-05-09 08:17 6.75966 3.34944 5950 ft 156 kts 303°
2026-05-09 08:17 6.76121 3.33864 5967 ft 162 kts 258°
2026-05-09 08:17 6.75542 3.32920 5968 ft 160 kts 214°
2026-05-09 08:18 6.74526 3.32586 5973 ft 150 kts 171°
2026-05-09 08:18 6.73487 3.32659 5981 ft 149 kts 169°
2026-05-09 08:18 6.72438 3.32703 5976 ft 150 kts 171°
2026-05-09 08:18 6.71388 3.32727 5974 ft 150 kts 172°
2026-05-09 08:19 6.70369 3.32841 5951 ft 144 kts 149°
2026-05-09 08:19 6.69717 3.33526 5956 ft 131 kts 104°
2026-05-09 08:19 6.69804 3.34386 5964 ft 127 kts 59°
2026-05-09 08:19 6.70533 3.34874 5966 ft 133 kts 18°
2026-05-09 08:20 6.71465 3.35045 5967 ft 135 kts 16°
2026-05-09 08:20 6.72389 3.35210 5974 ft 134 kts 16°
2026-05-09 08:20 6.73322 3.35383 5972 ft 134 kts 16°
2026-05-09 08:20 6.74241 3.35554 5961 ft 134 kts 17°
2026-05-09 08:21 6.75190 3.35567 5936 ft 144 kts 347°
2026-05-09 08:21 6.75968 3.34880 5953 ft 157 kts 303°
2026-05-09 08:21 6.76119 3.33787 5970 ft 163 kts 258°
2026-05-09 08:21 6.75534 3.32834 5978 ft 160 kts 214°
2026-05-09 08:22 6.74530 3.32502 5971 ft 149 kts 170°
2026-05-09 08:22 6.73496 3.32615 5973 ft 149 kts 167°
2026-05-09 08:22 6.72451 3.32683 5976 ft 149 kts 170°
2026-05-09 08:22 6.71396 3.32715 5966 ft 150 kts 171°
2026-05-09 08:23 6.70366 3.32831 5951 ft 144 kts 149°
2026-05-09 08:23 6.69710 3.33500 5953 ft 132 kts 105°
2026-05-09 08:23 6.69765 3.34366 5969 ft 126 kts 62°
2026-05-09 08:23 6.70480 3.34891 5965 ft 133 kts 18°
2026-05-09 08:24 6.71399 3.35060 5975 ft 134 kts 16°
2026-05-09 08:24 6.72332 3.35229 5967 ft 136 kts 16°
2026-05-09 08:24 6.73273 3.35398 5977 ft 135 kts 17°
2026-05-09 08:24 6.74202 3.35573 5960 ft 136 kts 16°
2026-05-09 08:25 6.75168 3.35568 5947 ft 145 kts 345°
2026-05-09 08:25 6.75922 3.34870 5956 ft 157 kts 301°
2026-05-09 08:25 6.76033 3.33772 5979 ft 162 kts 256°
2026-05-09 08:25 6.75409 3.32853 5967 ft 160 kts 211°
2026-05-09 08:26 6.74388 3.32576 5966 ft 150 kts 169°
2026-05-09 08:26 6.73331 3.32658 5966 ft 151 kts 168°
2026-05-09 08:26 6.72277 3.32704 5974 ft 151 kts 170°
2026-05-09 08:26 6.71220 3.32728 5974 ft 151 kts 172°
2026-05-09 08:27 6.70217 3.32913 5962 ft 142 kts 141°
2026-05-09 08:27 6.69671 3.33651 5966 ft 129 kts 98°
2026-05-09 08:27 6.69864 3.34500 5958 ft 128 kts 53°
2026-05-09 08:27 6.70660 3.34925 5966 ft 135 kts 17°
2026-05-09 08:28 6.71597 3.35090 5971 ft 135 kts 16°
2026-05-09 08:28 6.72525 3.35258 5963 ft 136 kts 16°
2026-05-09 08:28 6.73466 3.35424 5970 ft 135 kts 16°
2026-05-09 08:28 6.74399 3.35598 5958 ft 136 kts 16°
2026-05-09 08:29 6.75363 3.35471 5952 ft 147 kts 336°
2026-05-09 08:29 6.76007 3.34661 5957 ft 158 kts 292°
2026-05-09 08:29 6.75958 3.33544 5960 ft 163 kts 246°
2026-05-09 08:29 6.75203 3.32725 5954 ft 159 kts 202°
2026-05-09 08:30 6.74164 3.32579 5961 ft 150 kts 167°
2026-05-09 08:30 6.73108 3.32663 5956 ft 151 kts 168°
2026-05-09 08:30 6.72061 3.32708 5839 ft 151 kts 169°
2026-05-09 08:30 6.70993 3.32736 5676 ft 151 kts 169°
2026-05-09 08:31 6.70062 3.33049 5497 ft 138 kts 130°
2026-05-09 08:31 6.69709 3.33887 5306 ft 131 kts 84°
2026-05-09 08:31 6.70123 3.34668 5114 ft 135 kts 38°
2026-05-09 08:31 6.71038 3.34933 4955 ft 140 kts
2026-05-09 08:32 6.72025 3.34990 4788 ft 140 kts
2026-05-09 08:32 6.73009 3.35003 4611 ft 141 kts 360°
2026-05-09 08:32 6.74972 3.34899 4255 ft 142 kts 338°
2026-05-09 08:33 6.75666 3.34200 4066 ft 146 kts 290°
2026-05-09 08:33 6.75654 3.33211 3905 ft 144 kts 243°
2026-05-09 08:33 6.74954 3.32547 3734 ft 139 kts 196°
2026-05-09 08:33 6.74002 3.32548 3550 ft 138 kts 168°
2026-05-09 08:34 6.73043 3.32654 3386 ft 137 kts 173°
2026-05-09 08:34 6.72096 3.32708 3210 ft 137 kts 175°
2026-05-09 08:34 6.71140 3.32737 3035 ft 136 kts 176°
2026-05-09 08:34 6.70242 3.32959 2855 ft 137 kts 143°
2026-05-09 08:35 6.69768 3.33775 2666 ft 141 kts 97°
2026-05-09 08:35 6.70037 3.34714 2491 ft 143 kts 49°
2026-05-09 08:35 6.70886 3.35196 2447 ft 142 kts
2026-05-09 08:35 6.71870 3.35171 2455 ft 141 kts 354°
2026-05-09 08:36 6.72869 3.35117 2455 ft 141 kts 355°
2026-05-09 08:36 6.73845 3.35068 2457 ft 141 kts 355°
2026-05-09 08:36 6.74831 3.34960 2435 ft 140 kts 336°
2026-05-09 08:36 6.75518 3.34327 2446 ft 135 kts 291°
2026-05-09 08:37 6.75554 3.33422 2443 ft 132 kts 247°
2026-05-09 08:37 6.74936 3.32777 2436 ft 132 kts 204°
2026-05-09 08:37 6.74019 3.32692 2450 ft 133 kts 180°
2026-05-09 08:37 6.73079 3.32715 2452 ft 134 kts 180°
2026-05-09 08:38 6.72140 3.32715 2449 ft 133 kts 188°
2026-05-09 08:38 6.71370 3.32286 2497 ft 123 kts 224°
2026-05-09 08:38 6.70741 3.31753 2408 ft 112 kts 224°
2026-05-09 08:38 6.70149 3.31287 2259 ft 105 kts 211°
2026-05-09 08:39 6.69462 3.31194 2133 ft 97 kts 181°
2026-05-09 08:39 6.68806 3.31205 1987 ft 91 kts 183°
2026-05-09 08:39 6.68178 3.31209 1854 ft 88 kts 183°
2026-05-09 08:39 6.67565 3.31214 1742 ft 86 kts 183°
2026-05-09 08:40 6.66966 3.31218 1651 ft 84 kts 183°
2026-05-09 08:40 6.66385 3.31223 1538 ft 84 kts 182°
2026-05-09 08:40 6.65792 3.31229 1424 ft 83 kts 182°
2026-05-09 08:40 6.65220 3.31235 1302 ft 82 kts 182°
2026-05-09 08:41 6.64643 3.31241 1201 ft 82 kts 181°
2026-05-09 08:41 6.64071 3.31249 1099 ft 81 kts 182°
2026-05-09 08:41 6.63497 3.31256 992 ft 82 kts 182°
2026-05-09 08:41 6.62921 3.31262 887 ft 82 kts 181°
2026-05-09 08:42 6.62352 3.31270 782 ft 82 kts 182°
2026-05-09 08:42 6.61780 3.31276 675 ft 82 kts 181°
2026-05-09 08:42 6.61202 3.31283 569 ft 82 kts 181°
2026-05-09 08:42 6.60631 3.31291 468 ft 82 kts 181°
2026-05-09 08:43 6.60052 3.31297 360 ft 82 kts 181°
2026-05-09 08:43 6.59475 3.31304 253 ft 82 kts 181°
2026-05-09 08:43 6.58908 3.31311 152 ft 79 kts 181°
2026-05-09 08:43 6.58395 3.31321 89 ft 66 kts 181°
2026-05-09 08:44 6.57988 3.31326 67 ft 45 kts 180°
2026-05-09 08:44 6.57756 3.31332 67 ft 19 kts 168°
2026-05-09 08:44 6.57739 3.31369 68 ft 2 kts 31°
2026-05-09 08:44 6.57788 3.31398 70 ft 11 kts 31°
2026-05-09 08:45 6.57888 3.31446 83 ft 20 kts 51°
2026-05-09 08:45 6.58049 3.31571 109 ft 38 kts 69°
2026-05-09 08:45 6.58157 3.31767 90 ft 16 kts 154°
2026-05-09 08:45 6.58209 3.31791 92 ft 9 kts 155°
2026-05-09 08:46 6.58224 3.31804 94 ft 1 kts 176°
2026-05-09 08:46 6.58222 3.31801 92 ft 0 kts 176°
2026-05-09 08:46 6.58227 3.31802 96 ft 2 kts 176°
2026-05-09 08:46 6.58237 3.31823 90 ft 2 kts 186°
2026-05-09 08:47 6.58252 3.31814 92 ft 2 kts 179°
2026-05-09 08:47 6.58256 3.31812 95 ft 0 kts 180°
2026-05-09 08:47 6.58256 3.31814 96 ft 0 kts 189°
2026-05-09 08:47 6.58263 3.31819 97 ft 1 kts 196°
2026-05-09 08:48 6.58273 3.31826 96 ft 2 kts 205°
2026-05-09 08:48 6.58301 3.31761 112 ft 18 kts 191°
2026-05-09 08:48 6.58277 3.31644 74 ft 14 kts 187°
2026-05-09 08:48 6.58186 3.31647 76 ft 16 kts 193°
2026-05-09 08:49 6.58088 3.31679 112 ft 15 kts 219°
2026-05-09 08:49 6.58002 3.31738 124 ft 18 kts 196°
2026-05-09 08:49 6.57719 3.31727 243 ft 67 kts 184°
2026-05-09 08:49 6.57086 3.31724 363 ft 106 kts 173°
2026-05-09 08:50 6.56288 3.31750 539 ft 117 kts 178°
2026-05-09 08:50 6.55480 3.31642 770 ft 118 kts 184°
2026-05-09 08:50 6.54836 3.31467 949 ft 119 kts 189°
2026-05-09 08:50 6.54061 3.31151 1168 ft 120 kts 192°
2026-05-09 08:51 6.53317 3.30762 1381 ft 120 kts 193°
2026-05-09 08:51 6.52611 3.30326 1585 ft 120 kts 197°
2026-05-09 08:51 6.51921 3.29828 1788 ft 120 kts 201°
2026-05-09 08:51 6.51283 3.29293 1991 ft 121 kts 205°
2026-05-09 08:52 6.50480 3.28495 2260 ft 121 kts 211°
2026-05-09 08:52 6.50109 3.28067 2393 ft 122 kts 213°
2026-05-09 08:52 6.49592 3.27377 2575 ft 123 kts 224°